Regional Weather Roundup
Issued by NWS

Home | Current Version | Previous Version | Text Only | Print | Product List | Glossary Off
Versions: 1 2 3 4 5 6 7 8 9 10 11 12 13 14 15 16 17 18 19 20 21 22 23 24 25 26 27 28 29 30 31 32 33 34 35 36 37 38 39 40 41 42 43 44 45 46 47 48 49 50

000
ASUS43 KLMK 020010
RWRKY
KENTUCKY REGIONAL WEATHER ROUNDUP
NATIONAL WEATHER SERVICE LOUISVILLE KY
800 PM EDT WED JUL 01 2015

NOTE "FAIR" INDICATES FEW OR NO CLOUDS BELOW 12,000 FEET
WITH NO SIGNIFICANT WEATHER AND/OR OBSTRUCTIONS TO VISIBILITY.

KYZ001>023-026-027-061>063-070>075-020100-
WESTERN AND SOUTH CENTRAL KENTUCKY

CITY           SKY/WX    TMP DP  RH WIND       PRES   REMARKS
PADUCAH        MOSUNNY   79  68  69 SW7       29.90S
HENDERSON      PTSUNNY   81  66  61 SW9       29.89R
OWENSBORO      PTSUNNY   79  71  76 SW7       29.90S
HOPKINSVILLE   PTSUNNY   76  69  78 S9        29.94S
BOWLING GREEN  PTSUNNY   79  67  66 W7        29.93R
GLASGOW        CLOUDY    76  66  70 SW8       29.93R
$$

KYZ024-025-028>034-038-045-046-053-020100-
NORTH CENTRAL KENTUCKY

CITY           SKY/WX    TMP DP  RH WIND       PRES   REMARKS
LOUISVILLE/SDF CLOUDY    77  66  68 W3        29.89S
LOUISVILLE/LOU MOSUNNY   77  69  76 SW5       29.91R
FORT KNOX      PTSUNNY   75  68  80 SW1       29.91R
$$

KYZ035>037-039>044-047>052-055>060-089>105-020100-
NORTHEAST KENTUCKY

CITY           SKY/WX    TMP DP  RH WIND       PRES   REMARKS
LEXINGTON      CLOUDY    73  69  87 SE5       29.93R FOG
COVINGTON      CLOUDY    75  64  68 W3        29.91R
FRANKFORT      CLOUDY    73  67  81 W3        29.91R
$$

KYZ054-064>069-076>088-106>120-020100-
SOUTHEAST KENTUCKY

CITY           SKY/WX    TMP DP  RH WIND       PRES   REMARKS
JACKSON        CLOUDY    72  66  81 CALM      29.95S
LONDON         CLOUDY    72  67  84 SE3       29.94S
SOMERSET       TSTM      66  66 100 NE5G12    29.95R VSB 1/2
MIDDLESBORO    CLOUDY    71  68  88 CALM      29.96F
MONTICELLO     CLOUDY    74  69  84 SW14      29.96R
$$




USA.gov is the U.S. government's official web portal to all federal, state and local government web resources and services.